Volver al catálogo

NOAA 16 DEB

ActivoSSO
NORAD 41196·DEBRIS·🇺🇸 United States

Lanzado Sep 21, 2000 desde Vandenberg Space Force Base

Loading…

Próximos Pases (próximas 24 horas)

TLE

ActualizadoSource: Space-Track

Época: Sep 13, 2026, 23:49 UTC

1 41196U 00055CZ  26256.99290224  .00001922  00000-0  10049-2 0  9999
2 41196  98.7339 276.2645 0053425  48.5140 312.0602 14.14804774550706

Sigue NOAA 16 DEB en tiempo real con AllMySat

Download on the App Store